Погода в Верх-Ушнуре

Россия / Республика Марий Эл     56°46′30″N   48°38′44″E
темп.,
°C
ветер,
м/с
пор.,
м/с
влажн.,
%
обл.,
%
осадки,
мм/ч
давл.,
гПа
погр.,
м
18 мая, ср
ср1800:00+8с4797100 1.8 1000350
03:00+8с51098100 15.5 999660
06:00+7с61195100 3.4 1000841
09:00+7с6992100 4.1 10021005
12:00+8ссв698099 0.3 10031036
15:00+9с5876100 0.8 10051178
18:00+8ссз587696 0.3 1006728
21:00+6сз3778100 0.4 1007206
19 мая, чт
чт1900:00+4сз2386100 0.0 100738
03:00+5зюз2285100 0.0 100779
06:00+6юз1283100 0.1 1006299
09:00+5сз2396100 3.1 1006753
12:00+3зсз3799100 3.6 1008413
15:00+6зсз5877100 3.8 10081045
18:00+6сз477959 0.3 1008690
21:00+3з338740 0.3 100945
20 мая, пт
пт2000:00+3з2492100 0.0 1009121
03:00+1сз359997 0.1 1009106
06:00+3ссз3490100 0.0 1010585
09:00+3ссз369697 0.1 1011460
12:00+8ссз5663100 0.9 10101640
15:00+8ссз686661 1.8 10101398
18:00+6с79725 0.6 1010934
21:00+3ссз51088100 0.6 1011375
21 мая, сб
сб2100:00+1ссз4109564 0.0 1010340
03:00+2ссз5884100 0.0 1009711
06:00+2ссз5889100 0.0 1008598
09:00+3сз5685100 0.4 1007832
12:00+5сз6771100 0.5 10061307
15:00+4ссз7884100 1.4 1006960
18:00+3ссз5888100 0.6 1006815
21:00+1сз5993100 0.8 1006534
22 мая, вс
вс2200:000сз5897100 0.2 1005501
03:000ссз5890100 0.6 1004779
06:00+1сз5894100 0.1 1004524
09:00+3сз6781100 0.3 10041004
12:00+3сз7978100 0.3 10041059
15:00+4сз71075100 0.4 10041242
18:00+4зсз51079100 0.1 1004898
21:00+2з4990100 0.1 1003170